Location: Unspecified
(45.0173°N, 35.2345°E)
Time: 16:53:21
(UTC+02:00)

ISS - Pass Details

Date: 22 January 2026
Orbit: 414 x 429 km, 51.6° (Epoch: 8 February)

Event Time Altitude Azimuth Distance (km) Brightness Sun altitude
Rises 18:54:25 0° 299° (WNW) 2,369 1.0 -24.8°
Reaches altitude 10° 18:56:36 10° 308° (NW) 1,507 -0.3 -25.2°
Enters shadow 18:57:53 20° 319° (NW) 1,047 -1.4 -25.4°
